Regional Weather Roundup
Issued by NWS Charleston, SC

Current Version | Previous Version | Graphics & Text | Print | Product List | Glossary On
Versions: 1 2 3 4 5 6 7 8 9 10 11 12 13 14 15 16 17 18 19 20 21 22 23 24 25 26 27 28 29 30 31 32 33 34 35 36 37 38 39 40 41 42 43 44 45 46 47 48 49 50
000
ASUS42 KCHS 141827
RWRCHS

REGIONAL WEATHER ROUNDUP
NATIONAL WEATHER SERVICE CHARLESTON SC
100 PM EST SUN FEB 14 2016

NOTE: "FAIR" INDICATES FEW OR NO CLOUDS BELOW 12,000 FEET WITH NO
SIGNIFICANT WEATHER AND/OR OBSTRUCTIONS TO VISIBILITY.

NOT ALL STATIONS ARE QUALITY CONTROLLED BY THE NATIONAL
WEATHER SERVICE. USE DATA WITH CAUTION...ESPECIALLY
DEWPOINT OBSERVATIONS.

SCZ027-030-031-034>040-042>050-141900-
...SOUTHEAST SOUTH CAROLINA...

CITY           SKY/WX    TMP DP  RH WIND       PRES   REMARKS
N CHARLESTON   MOSUNNY   42  12  29 E10G17    30.44F
6HR MIN TEMP:  28; 6HR MAX TEMP:  43;

WATERFRONT PRK   N/A     37  24  59 E10       30.31F WCI  30
MOUNT PLEASANT FAIR      39  21  48 E6        30.45F WCI  35
JOHNS ISLAND   FAIR      39  23  52 NE17      30.44F WCI  30
PINOPOLIS        N/A     36  10  35 NE9       30.39F WCI  29
MONCKS CORNER  FAIR      37   1  22 E3        30.44F
SUMMERVILLE    FAIR      41  12  30 E6        30.45F
BEAUFORT MCAS  SUNNY     42  22  44 E12       30.43F
6HR MIN TEMP:  29; 6HR MAX TEMP:  43;

BEAUFORT ARPT  FAIR      41  25  52 NE12G17   30.42F
HILTON HEAD IS MOSUNNY   39  30  70 NE16G25   30.44F WCI  30
WALTERBORO     CLEAR     43  10  26 E7        30.44F
ALLENDALE      FAIR      41  12  30 CALM      30.41F

...SOUTHERN MIDLANDS AND PEE DEE...

CITY           SKY/WX    TMP DP  RH WIND       PRES   REMARKS
GEORGETOWN     FAIR      36  18  48 E10       30.49F WCI  28
KINGSTREE      CLOUDY    34   1  25 NE7       30.47F WCI  28
ORANGEBURG     SUNNY     36   4  26 SE9       30.45F WCI  29
6HR MIN TEMP:  26; 6HR MAX TEMP:  37;

BARNWELL       FAIR      41  10  28 CALM      30.42F
AIKEN          FAIR      37   7  28 E8G17     30.43F WCI  31
MANNING        FAIR      36   3  25 NE7       30.45F WCI  30
COLUMBIA       PTSUNNY   38   1  21 VRB7      30.44F WCI  33
6HR MIN TEMP:  26; 6HR MAX TEMP:  38;

SUMTER         CLOUDY    34   3  27 NE10      30.45F WCI  26
6HR MIN TEMP:  23; 6HR MAX TEMP:  35;

FLORENCE       PTSUNNY   33   2  26 NE9       30.49F WCI  25
6HR MIN TEMP:  22; 6HR MAX TEMP:  33;

MYRTLE BEACH   SUNNY     36   7  30 MISG      30.53F
N MYRTLE BEACH SUNNY     34  10  37 E9        30.50F WCI  27
6HR MIN TEMP:  24; 6HR MAX TEMP:  35;


$$

GAZ063-065-086>088-099>101-113>116-118-119-134>141-150-141900-
...SOUTHEAST GEORGIA...

CITY           SKY/WX    TMP DP  RH WIND       PRES   REMARKS
SAVANNAH ARPT  CLOUDY    44  24  45 NE10G17   30.42F
6HR MIN TEMP:  31; 6HR MAX TEMP:  45;

HUNTER AAF     CLOUDY    43  30  61 NE13G21   30.37F
6HR MIN TEMP:  32; 6HR MAX TEMP:  43;

FORT STEWART   CLOUDY    45  30  55 E10       30.37F
6HR MIN TEMP:  32; 6HR MAX TEMP:  45;

STATESBORO     SUNNY     49   9  20 SE5       30.39F
SYLVANIA       CLEAR     46  23  41 SE7       30.40F
CLAXTON        FAIR      48  29  48 E7        30.39F

...CSRA...CENTRAL AND FAR SOUTHEAST GEORGIA...

CITY           SKY/WX    TMP DP  RH WIND       PRES   REMARKS
THOMSON        SUNNY     42  14  32 E7        30.41F
AUGUSTA-BUSH   SUNNY     42  10  27 CALM      30.41F
6HR MIN TEMP:  26; 6HR MAX TEMP:  42;

AUGUSTA-DANIEL SUNNY     40   6  24 SE8       30.40F WCI  34
SWAINSBORO     FAIR      45  19  36 SE7       30.37F
VIDALIA        MOSUNNY   48  27  43 SE7       30.36F
EASTMAN        FAIR      49  26  41 SE6       30.36F
HAZLEHURST     FAIR      50  30  45 E8        30.34F
ALMA           MOSUNNY   50  33  52 E8        30.35F
6HR MIN TEMP:  32; 6HR MAX TEMP:  51;

WAYCROSS       MOSUNNY   58  42  56 SE12      30.32F
JESUP          CLOUDY    50  39  66 E12G17    30.37F
BAXLEY         FAIR      52  32  46 E10       30.34F
BRUNSWICK      CLOUDY    46  39  76 NE12      30.37F
SAINT SIMONS   CLOUDY    49  41  74 NE18G28   30.37F
6HR MIN TEMP:  37; 6HR MAX TEMP:  52;


$$

SCZ027-028-034-036>038-045-046-048>050-GAZ119-141-141900-
...LAKE AND SUPPLEMENTAL COASTAL OBSERVATIONS...

STATION/POSITION TIME  TEMP    WIND        PRES    WAVE   SWELL
                       AIR SEA DIR/SP/G            HT/PER HT/PER/DIR
                 (UTC) (F)     (DEG/KT/KT) (MB)    (FT/S) (FT/S/D)
WINYAH BAY       1700   30      50/ 13     1032.0S
LAKE MURRAY      1700   31      70/  7/ 12 1031.5F
ACE BASIN NERRS  1700   40      40/  5     1031.0
FORT PULASKI     1800   39 50   40/ 19/ 25 1030.2F
SAPELO ISLAND    1800   45      40/ 15     1029.0F

$$

ANZ835-935-AMZ111-154-330-350-352-354-370-450-454-472-141900-
...C-MAN AND BUOY OBSERVATIONS...

STATION/POSITION TIME  TEMP    WIND        PRES    WAVE   SWELL
                       AIR SEA DIR/SP/G            HT/PER HT/PER/DIR
                 (UTC) (F)     (DEG/KT/KT) (MB)    (FT/S) (FT/S/D)
BUOY 41004       1750   44 68   40/ 16/ 21 1029.7F   5/ 7
BUOY 41008       1750   47 53   40/ 23/ 27 1027.9F   7/ 7
FOLLY BEACH CMAN 1800   35      50/ 21/ 25 1031.2F
CAPERS NEARSHORE 1708   35      50/ 21/ 27 1032.1
FRIPP NEARSHORE  1700   40      60/ 21/ 25 1029.4F


STATION/POSITION TIME  TEMP    WIND        PRES    WAVE   SWELL
                       AIR SEA DIR/SP/G            HT/PER HT/PER/DIR
                 (UTC) (F)     (DEG/KT/KT) (MB)    (FT/S) (FT/S/D)
5E ST. MARYS GA  1721      55                N/A     5/ 6
FRYING PAN BUOY  1800   35 61   30/ 16/ 21 1032.0F
BUOY 41025       1750   29 71  360/ 19/ 25 1032.8F   5/11   3/ 60/11
CAPE LOOKOUT NC  1800   26      20/ 11/ 15 1033.1F
BUOY 41002       1750   48 68   20/ 10/ 16   N/A     9/10   8/ 10/10
BUOY 41010       1720   62 72              1025.4F
ST AUGUSTINE FL  1800   55 57  360/ 20/ 21 1026.7F


$$



USA.gov is the U.S. government's official web portal to all federal, state and local government web resources and services.